QPF
0.00 0.00 0.00 0.00 0.00 0.00 0.00 0.00 0.00 0.01 0.00 0.00 0.00 0.00 0.00 0.00 0.03 0.01 0.00 0.00 0.00 0.00 0.00 0.00 0.00 0.00 0.00 0.00 0.00 0.00 0.02 0.05 0.06 0.06 0.06 0.10 0.15 0.18 0.19 0.15 0.17 0.19
0.00 0.00 0.00 0.00 0.00 0.00 0.00 0.00 0.00 0.00 0.00 0.00 0.00 0.00 0.00 0.00 0.01 0.01 0.01 0.01 0.01 0.03 0.01 0.00 0.00 0.00 0.00 0.00 0.00 0.00 0.01 0.05 0.06 0.05 0.11 0.10 0.13 0.16 0.20 0.23 0.27 0.25
0.00 0.00 0.00 0.00 0.00 0.00 0.00 0.00 0.00 0.00 0.00 0.00 0.00 0.00 0.00 0.00 0.02 0.00 0.00 0.00 0.00 0.00 0.00 0.00 0.00 0.00 0.00 0.01 0.03 0.01 0.01 0.01 0.11 0.13 0.18 0.19 0.23 0.26 0.18 0.24 0.30 0.29
0.00 0.00 0.00 0.00 0.00 0.00 0.00 0.00 0.00 0.00 0.00 0.00 0.00 0.00 0.00 0.00 0.00 0.00 0.00 0.00 0.00 0.00 0.00 0.00 0.00 0.00 0.00 0.00 0.00 0.04 0.04 0.14 0.11 0.12 0.16 0.16 0.15 0.16 0.17 0.26 0.32 0.30
0.00 0.00 0.00 0.00 0.00 0.00 0.00 0.00 0.00 0.00 0.00 0.00 0.00 0.00 0.00 0.00 0.00 0.00 0.00 0.00 0.00 0.00 0.00 0.00 0.00 0.00 0.00 0.00 0.00 0.01 0.02 0.03 0.08 0.19 0.15 0.11 0.12 0.13 0.15 0.14 0.23 0.23
0.00 0.00 0.00 0.00 0.00 0.00 0.00 0.00 0.00 0.00 0.00 0.00 0.00 0.00 0.00 0.00 0.00 0.00 0.00 0.00 0.00 0.00 0.00 0.00 0.00 0.00 0.00 0.00 0.00 0.00 0.01 0.02 0.01 0.11 0.12 0.10 0.11 0.14 0.12 0.09 0.10 0.16
0.00 0.00 0.00 0.00 0.00 0.00 0.00 0.00 0.00 0.00 0.00 0.00 0.00 0.00 0.00 0.00 0.00 0.00 0.00 0.00 0.00 0.00 0.00 0.00 0.01 0.01 0.01 0.01 0.00 0.00 0.02 0.17 0.20 0.30 0.09 0.10 0.11 0.10 0.09 0.07 0.08 0.09
0.00 0.00 0.00 0.00 0.00 0.00 0.00 0.00 0.00 0.00 0.00 0.00 0.00 0.00 0.00 0.00 0.00 0.00 0.00 0.00 0.00 0.01 0.00 0.00 0.01 0.01 0.00 0.00 0.01 0.01 0.01 0.01 0.03 0.07 0.06 0.06 0.07 0.06 0.05 0.08 0.10 0.11
0.00 0.00 0.00 0.00 0.00 0.00 0.00 0.00 0.00 0.00 0.00 0.00 0.00 0.00 0.00 0.00 0.00 0.00 0.00 0.00 0.00 0.00 0.00 0.00 0.01 0.00 0.00 0.00 0.01 0.01 0.01 0.01 0.02 0.04 0.08 0.06 0.05 0.05 0.05 0.10 0.20 0.13
0.00 0.00 0.00 0.00 0.00 0.00 0.00 0.00 0.00 0.00 0.00 0.00 0.00 0.00 0.00 0.00 0.00 0.00 0.00 0.00 0.00 0.00 0.01 0.00 0.00 0.00 0.00 0.01 0.01 0.02 0.02 0.01 0.01 0.02 0.03 0.06 0.06 0.05 0.14 0.11 0.10 0.07
0.00 0.00 0.00 0.00 0.00 0.00 0.00 0.00 0.00 0.00 0.00 0.00 0.00 0.00 0.00 0.00 0.00 0.00 0.00 0.00 0.00 0.00 0.02 0.00 0.00 0.00 0.00 0.00 0.00 0.00 0.01 0.01 0.00 0.01 0.03 0.04 0.08 0.06 0.07 0.06 0.05 0.05
0.00 0.00 0.00 0.00 0.00 0.00 0.00 0.00 0.00 0.00 0.00 0.00 0.00 0.00 0.00 0.00 0.00 0.00 0.00 0.00 0.00 0.00 0.02 0.00 0.00 0.00 0.00 0.00 0.00 0.00 0.00 0.00 0.01 0.01 0.01 0.02 0.04 0.05 0.06 0.05 0.05 0.05
0.00 0.00 0.00 0.00 0.00 0.00 0.00 0.00 0.00 0.00 0.00 0.00 0.00 0.00 0.00 0.00 0.00 0.00 0.00 0.00 0.00 0.00 0.00 0.00 0.00 0.00 0.00 0.00 0.00 0.00 0.00 0.00 0.00 0.01 0.01 0.01 0.02 0.03 0.02 0.03 0.04 0.03
0.00 0.00 0.00 0.00 0.00 0.00 0.00 0.00 0.00 0.00 0.00 0.00 0.00 0.00 0.00 0.00 0.00 0.00 0.00 0.00 0.00 0.00 0.00 0.00 0.00 0.00 0.00 0.00 0.00 0.00 0.00 0.00 0.00 0.00 0.01 0.01 0.01 0.04 0.02 0.02 0.03 0.06
0.00 0.00 0.00 0.00 0.00 0.00 0.00 0.00 0.00 0.00 0.00 0.00 0.00 0.00 0.00 0.00 0.00 0.00 0.00 0.00 0.00 0.00 0.00 0.00 0.00 0.00 0.00 0.01 0.01 0.00 0.00 0.00 0.00 0.00 0.00 0.02 0.05 0.06 0.09 0.03 0.02 0.03
0.00 0.00 0.00 0.00 0.00 0.00 0.00 0.00 0.00 0.00 0.00 0.00 0.00 0.00 0.00 0.00 0.00 0.00 0.00 0.00 0.00 0.00 0.00 0.00 0.00 0.00 0.00 0.00 0.00 0.01 0.01 0.00 0.00 0.00 0.00 0.01 0.01 0.01 0.10 0.09 0.08 0.02
0.00 0.00 0.00 0.00 0.00 0.00 0.00 0.00 0.00 0.00 0.00 0.00 0.00 0.00 0.00 0.00 0.00 0.00 0.00 0.00 0.00 0.00 0.00 0.00 0.00 0.00 0.00 0.00 0.00 0.00 0.00 0.00 0.00 0.00 0.00 0.01 0.01 0.01 0.01 0.03 0.02 0.01
0.00 0.00 0.00 0.00 0.00 0.00 0.00 0.00 0.00 0.00 0.00 0.00 0.00 0.00 0.00 0.00 0.00 0.00 0.00 0.00 0.00 0.00 0.00 0.00 0.00 0.00 0.00 0.00 0.00 0.00 0.00 0.00 0.00 0.00 0.00 0.00 0.02 0.04 0.06 0.04 0.09 0.08
0.00 0.00 0.00 0.00 0.00 0.00 0.00 0.00 0.00 0.00 0.00 0.00 0.00 0.00 0.00 0.00 0.00 0.00 0.00 0.00 0.00 0.00 0.00 0.00 0.00 0.00 0.00 0.00 0.00 0.00 0.00 0.00 0.00 0.00 0.00 0.00 0.00 0.00 0.01 0.15 0.42 0.29
0.00 0.00 0.00 0.00 0.00 0.00 0.00 0.00 0.00 0.00 0.00 0.00 0.00 0.00 0.00 0.00 0.00 0.00 0.00 0.00 0.00 0.00 0.00 0.00 0.00 0.00 0.00 0.00 0.00 0.00 0.00 0.00 0.00 0.00 0.00 0.00 0.01 0.03 0.12 0.02 0.01 0.08
0.00 0.00 0.00 0.00 0.00 0.00 0.00 0.00 0.00 0.00 0.00 0.00 0.00 0.00 0.00 0.00 0.00 0.00 0.00 0.00 0.00 0.00 0.00 0.00 0.00 0.00 0.00 0.00 0.00 0.00 0.00 0.00 0.00 0.00 0.00 0.00 0.01 0.03 0.02 0.02 0.02 0.03
0.00 0.00 0.00 0.00 0.00 0.00 0.00 0.00 0.00 0.00 0.00 0.00 0.00 0.00 0.00 0.00 0.00 0.00 0.00 0.00 0.00 0.00 0.00 0.00 0.00 0.00 0.00 0.00 0.00 0.00 0.00 0.00 0.00 0.00 0.01 0.01 0.02 0.02 0.01 0.02 0.04 0.04
0.00 0.00 0.00 0.00 0.00 0.00 0.00 0.00 0.00 0.00 0.00 0.00 0.00 0.00 0.00 0.00 0.00 0.00 0.00 0.00 0.00 0.00 0.00 0.00 0.00 0.00 0.00 0.00 0.00 0.00 0.00 0.00 0.00 0.01 0.01 0.01 0.01 0.00 0.01 0.01 0.04 0.04
0.00 0.00 0.00 0.00 0.00 0.00 0.00 0.00 0.00 0.00 0.00 0.00 0.00 0.00 0.00 0.00 0.00 0.00 0.00 0.00 0.00 0.00 0.00 0.00 0.00 0.00 0.00 0.00 0.00 0.00 0.00 0.00 0.00 0.01 0.02 0.02 0.01 0.01 0.00 0.00 0.01 0.02
0.00 0.00 0.00 0.00 0.00 0.00 0.00 0.00 0.00 0.00 0.00 0.00 0.00 0.00 0.00 0.00 0.00 0.00 0.00 0.00 0.00 0.00 0.00 0.00 0.00 0.00 0.00 0.00 0.00 0.00 0.00 0.00 0.00 0.00 0.02 0.04 0.03 0.01 0.02 0.03 0.04 0.05
0.00 0.00 0.00 0.00 0.00 0.00 0.00 0.00 0.00 0.00 0.00 0.00 0.00 0.00 0.00 0.00 0.00 0.00 0.00 0.00 0.00 0.00 0.00 0.00 0.00 0.00 0.00 0.00 0.00 0.00 0.00 0.00 0.00 0.01 0.02 0.03 0.03 0.01 0.01 0.04 0.10 0.12
MSLP
1018.88 1018.88 1018.84 1018.80 1018.76 1018.72 1018.60 1018.48 1018.32 1018.16 1017.92 1017.68 1017.52 1017.28 1017.04 1016.72 1016.40 1016.24 1016.08 1015.88 1015.72 1015.60 1015.44 1015.32 1015.20 1015.08 1014.92 1014.80 1014.76 1014.76 1014.72 1014.68 1014.64 1014.56 1014.52 1014.56 1014.64 1014.76 1014.84 1014.76 1014.72 1014.72
1018.96 1018.96 1018.92 1018.84 1018.84 1018.76 1018.64 1018.52 1018.44 1018.24 1018.00 1017.72 1017.52 1017.32 1017.00 1016.76 1016.48 1016.28 1016.08 1015.92 1015.72 1015.56 1015.36 1015.24 1015.08 1014.96 1014.84 1014.72 1014.60 1014.60 1014.56 1014.52 1014.48 1014.36 1014.40 1014.36 1014.32 1014.40 1014.48 1014.44 1014.36 1014.28
1019.12 1019.08 1019.04 1019.04 1019.00 1018.96 1018.76 1018.60 1018.40 1018.20 1018.00 1017.80 1017.56 1017.36 1017.20 1016.92 1016.68 1016.36 1016.16 1016.00 1015.80 1015.56 1015.36 1015.20 1015.04 1014.88 1014.76 1014.64 1014.52 1014.48 1014.40 1014.32 1014.24 1014.12 1014.16 1014.24 1014.12 1014.08 1014.00 1014.12 1014.16 1014.16
1019.36 1019.32 1019.28 1019.20 1019.08 1018.96 1018.88 1018.76 1018.56 1018.32 1018.04 1017.88 1017.76 1017.64 1017.48 1017.20 1016.88 1016.64 1016.40 1016.12 1015.96 1015.68 1015.44 1015.24 1015.08 1014.88 1014.72 1014.52 1014.44 1014.36 1014.20 1014.04 1013.88 1013.80 1013.76 1013.60 1013.56 1013.64 1013.68 1013.80 1013.92 1013.96
1019.68 1019.60 1019.52 1019.40 1019.28 1019.16 1019.04 1018.96 1018.76 1018.56 1018.36 1018.20 1017.96 1017.80 1017.64 1017.44 1017.20 1016.92 1016.68 1016.44 1016.16 1015.84 1015.52 1015.28 1015.04 1014.88 1014.68 1014.48 1014.28 1014.16 1014.00 1013.88 1013.72 1013.68 1013.56 1013.36 1013.16 1013.16 1013.20 1013.32 1013.44 1013.52
1020.08 1020.00 1019.88 1019.76 1019.64 1019.48 1019.32 1019.16 1019.00 1018.80 1018.64 1018.48 1018.36 1018.24 1018.08 1017.84 1017.60 1017.32 1017.04 1016.84 1016.56 1016.24 1015.84 1015.52 1015.20 1014.96 1014.72 1014.44 1014.20 1014.04 1013.88 1013.76 1013.56 1013.44 1013.36 1013.24 1013.12 1012.96 1012.84 1012.88 1013.08 1013.20
1020.56 1020.40 1020.28 1020.12 1019.96 1019.80 1019.68 1019.52 1019.32 1019.12 1018.88 1018.76 1018.64 1018.60 1018.48 1018.24 1018.04 1017.80 1017.40 1017.28 1016.92 1016.68 1016.88 1016.68 1016.28 1015.92 1015.48 1014.92 1014.36 1014.04 1013.80 1013.60 1013.36 1013.20 1013.16 1013.00 1012.92 1012.80 1012.68 1012.64 1012.68 1012.80
1020.84 1020.76 1020.64 1020.48 1020.28 1020.12 1019.96 1019.80 1019.60 1019.40 1019.20 1019.08 1018.96 1018.92 1018.84 1018.68 1018.44 1018.20 1017.92 1017.68 1017.32 1017.16 1017.36 1017.04 1016.88 1016.60 1016.32 1015.96 1015.48 1014.96 1014.24 1013.56 1013.16 1013.00 1012.92 1012.80 1012.76 1012.72 1012.60 1012.48 1012.48 1012.56
1021.12 1021.04 1020.88 1020.68 1020.48 1020.36 1020.24 1020.08 1019.92 1019.72 1019.52 1019.44 1019.32 1019.20 1019.12 1018.96 1018.84 1018.60 1018.32 1018.08 1017.80 1017.52 1017.64 1017.40 1017.40 1017.08 1016.80 1016.48 1016.08 1015.68 1015.20 1014.52 1013.56 1013.00 1012.76 1012.64 1012.56 1012.48 1012.40 1012.32 1012.24 1012.20
1021.24 1021.20 1021.04 1020.88 1020.76 1020.64 1020.56 1020.40 1020.24 1020.08 1019.84 1019.76 1019.64 1019.48 1019.32 1019.12 1018.96 1018.80 1018.60 1018.48 1018.24 1017.88 1017.88 1017.92 1017.80 1017.56 1017.28 1017.04 1016.76 1016.28 1015.76 1015.20 1014.60 1013.72 1012.88 1012.52 1012.44 1012.36 1012.28 1012.20 1012.08 1012.04
1021.40 1021.40 1021.32 1021.16 1021.08 1020.96 1020.88 1020.72 1020.56 1020.40 1020.20 1020.08 1019.96 1019.88 1019.72 1019.44 1019.20 1018.96 1018.80 1018.72 1018.52 1018.36 1018.12 1018.28 1018.20 1018.00 1017.76 1017.40 1017.04 1016.72 1016.28 1015.68 1015.04 1014.40 1013.56 1012.68 1012.28 1012.12 1012.04 1012.00 1011.92 1011.80
1021.68 1021.64 1021.56 1021.44 1021.32 1021.20 1021.12 1021.00 1020.80 1020.64 1020.56 1020.48 1020.40 1020.36 1020.12 1019.92 1019.64 1019.40 1019.24 1019.16 1019.00 1018.76 1018.44 1018.40 1018.36 1018.20 1018.04 1017.80 1017.44 1016.92 1016.44 1015.92 1015.32 1014.60 1013.84 1013.08 1012.28 1011.92 1011.76 1011.68 1011.64 1011.52
1021.92 1021.88 1021.80 1021.68 1021.56 1021.48 1021.40 1021.24 1021.12 1021.00 1020.84 1020.80 1020.72 1020.64 1020.48 1020.24 1020.00 1019.76 1019.60 1019.44 1019.28 1019.00 1018.72 1018.52 1018.40 1018.24 1018.12 1017.92 1017.56 1017.12 1016.68 1016.16 1015.48 1014.76 1013.96 1013.28 1012.52 1011.84 1011.52 1011.40 1011.36 1011.32
1022.04 1022.00 1021.96 1021.88 1021.80 1021.72 1021.64 1021.52 1021.44 1021.28 1021.20 1021.12 1020.96 1020.84 1020.72 1020.56 1020.36 1020.16 1019.96 1019.68 1019.44 1019.20 1018.96 1018.72 1018.56 1018.36 1018.12 1017.92 1017.72 1017.40 1016.76 1016.16 1015.64 1014.92 1014.12 1013.36 1012.64 1011.88 1011.40 1011.20 1011.12 1011.00
1022.12 1022.12 1022.08 1022.00 1021.92 1021.88 1021.84 1021.80 1021.72 1021.60 1021.44 1021.32 1021.20 1021.12 1020.96 1020.84 1020.64 1020.40 1020.12 1019.80 1019.56 1019.36 1019.12 1018.92 1018.72 1018.64 1018.48 1018.24 1017.80 1017.08 1016.76 1016.24 1015.60 1015.04 1014.44 1013.52 1012.60 1011.84 1011.24 1011.08 1011.00 1010.92
1022.36 1022.32 1022.24 1022.16 1022.08 1022.04 1022.08 1022.04 1021.96 1021.80 1021.68 1021.52 1021.40 1021.32 1021.20 1021.00 1020.84 1020.68 1020.44 1020.16 1019.88 1019.60 1019.36 1019.16 1019.00 1018.84 1018.68 1018.40 1018.04 1017.56 1016.76 1016.12 1015.56 1015.00 1014.44 1013.72 1012.84 1011.88 1011.12 1010.84 1010.84 1010.80
1022.60 1022.52 1022.44 1022.40 1022.32 1022.28 1022.24 1022.20 1022.16 1022.04 1021.88 1021.72 1021.60 1021.48 1021.36 1021.20 1021.04 1020.88 1020.72 1020.56 1020.32 1020.04 1019.76 1019.52 1019.32 1019.12 1018.84 1018.32 1017.76 1017.24 1016.68 1015.96 1015.44 1014.88 1014.44 1013.84 1013.04 1012.20 1011.40 1010.92 1010.60 1010.40
1022.96 1022.84 1022.72 1022.68 1022.60 1022.56 1022.48 1022.40 1022.36 1022.20 1022.08 1021.96 1021.84 1021.68 1021.56 1021.40 1021.24 1021.16 1021.04 1020.84 1020.60 1020.36 1020.12 1019.88 1019.52 1019.28 1018.84 1018.16 1017.52 1016.92 1016.40 1015.72 1015.12 1014.64 1014.12 1013.64 1013.08 1012.44 1011.76 1011.12 1010.56 1010.12
1023.36 1023.24 1023.16 1023.04 1022.92 1022.84 1022.76 1022.68 1022.56 1022.44 1022.32 1022.20 1022.04 1021.92 1021.80 1021.64 1021.56 1021.40 1021.24 1021.08 1020.84 1020.60 1020.36 1020.04 1019.68 1019.40 1018.92 1018.28 1017.60 1016.92 1016.24 1015.48 1014.68 1014.08 1013.52 1013.12 1012.84 1012.36 1011.88 1011.36 1010.64 1010.12
1023.72 1023.64 1023.52 1023.44 1023.32 1023.16 1023.04 1022.96 1022.84 1022.76 1022.64 1022.52 1022.36 1022.16 1022.00 1021.92 1021.80 1021.68 1021.52 1021.32 1021.12 1020.88 1020.60 1020.24 1019.84 1019.60 1019.16 1018.44 1017.76 1017.08 1016.28 1015.56 1014.96 1014.24 1013.76 1013.28 1013.08 1012.92 1012.72 1012.40 1011.76 1010.92
1024.08 1023.96 1023.88 1023.80 1023.64 1023.48 1023.36 1023.28 1023.20 1023.08 1022.88 1022.72 1022.60 1022.44 1022.28 1022.12 1022.04 1021.92 1021.76 1021.60 1021.44 1021.16 1020.80 1020.44 1020.08 1019.84 1019.36 1018.72 1018.00 1017.28 1016.44 1015.72 1015.20 1014.60 1014.32 1014.08 1013.76 1013.48 1013.20 1012.92 1012.40 1011.92
1024.40 1024.32 1024.20 1024.08 1023.96 1023.80 1023.72 1023.60 1023.52 1023.40 1023.28 1023.08 1022.88 1022.68 1022.52 1022.40 1022.24 1022.16 1022.04 1021.92 1021.68 1021.40 1021.08 1020.76 1020.28 1020.00 1019.64 1019.00 1018.36 1017.68 1016.80 1016.00 1015.60 1015.20 1014.88 1014.56 1014.16 1013.80 1013.52 1013.24 1012.84 1012.40
1024.68 1024.60 1024.48 1024.40 1024.28 1024.12 1024.04 1023.96 1023.88 1023.72 1023.56 1023.36 1023.20 1023.00 1022.84 1022.64 1022.52 1022.40 1022.32 1022.12 1021.92 1021.64 1021.40 1021.12 1020.64 1020.20 1019.92 1019.40 1018.80 1018.08 1017.16 1016.44 1015.96 1015.60 1015.28 1014.96 1014.64 1014.24 1013.88 1013.52 1013.20 1012.84
1025.00 1024.88 1024.76 1024.68 1024.60 1024.52 1024.44 1024.36 1024.24 1024.08 1023.92 1023.76 1023.60 1023.40 1023.16 1023.04 1022.88 1022.68 1022.48 1022.32 1022.12 1021.92 1021.56 1021.44 1021.00 1020.52 1020.20 1019.76 1019.24 1018.68 1018.00 1017.32 1016.76 1016.16 1015.72 1015.40 1015.04 1014.60 1014.28 1013.92 1013.48 1013.04
1025.24 1025.16 1025.08 1025.00 1024.96 1024.92 1024.84 1024.72 1024.60 1024.52 1024.36 1024.08 1023.88 1023.68 1023.52 1023.36 1023.12 1022.96 1022.80 1022.52 1022.36 1022.20 1021.84 1021.60 1021.28 1020.84 1020.44 1020.16 1019.60 1019.08 1018.52 1017.88 1017.36 1016.76 1016.16 1015.80 1015.48 1015.16 1014.80 1014.40 1013.88 1013.40
1025.44 1025.36 1025.36 1025.32 1025.28 1025.24 1025.12 1025.04 1024.96 1024.76 1024.56 1024.36 1024.16 1024.00 1023.80 1023.60 1023.44 1023.28 1023.12 1022.92 1022.68 1022.40 1022.16 1021.88 1021.52 1021.16 1020.80 1020.44 1020.04 1019.56 1019.12 1018.52 1017.88 1017.36 1016.92 1016.64 1016.28 1015.84 1015.24 1014.80 1014.48 1014.00
Thickness
5637 5636 5636 5636 5635 5635 5634 5634 5635 5635 5636 5637 5637 5638 5639 5640 5641 5641 5640 5640 5639 5638 5637 5636 5635 5635 5634 5634 5634 5633 5632 5632 5631 5631 5631 5630 5630 5629 5629 5629 5630 5630
5634 5633 5633 5632 5632 5631 5631 5631 5631 5632 5633 5634 5635 5636 5636 5638 5638 5639 5638 5637 5636 5635 5635 5634 5633 5632 5632 5631 5631 5631 5630 5630 5630 5629 5629 5629 5628 5628 5627 5628 5628 5630
5629 5629 5629 5628 5627 5627 5628 5629 5629 5630 5631 5631 5632 5632 5632 5633 5634 5634 5634 5633 5633 5632 5632 5631 5630 5630 5629 5629 5629 5629 5629 5629 5629 5629 5628 5628 5628 5627 5627 5627 5627 5628
5624 5624 5624 5623 5623 5624 5624 5625 5625 5626 5627 5628 5628 5627 5627 5628 5629 5629 5630 5629 5629 5629 5629 5628 5627 5627 5627 5627 5627 5626 5627 5627 5628 5628 5628 5629 5629 5628 5627 5627 5626 5626
5619 5619 5619 5619 5619 5619 5620 5621 5621 5622 5623 5623 5623 5622 5622 5623 5623 5624 5624 5624 5624 5625 5626 5626 5625 5625 5624 5624 5625 5625 5626 5626 5626 5626 5627 5628 5629 5628 5628 5627 5626 5626
5614 5614 5614 5614 5615 5615 5615 5616 5616 5617 5617 5617 5618 5617 5617 5617 5617 5618 5618 5618 5619 5620 5620 5621 5621 5621 5621 5622 5623 5624 5624 5624 5625 5626 5626 5626 5628 5628 5628 5627 5626 5626
5607 5608 5608 5609 5609 5609 5609 5610 5611 5612 5612 5612 5613 5612 5611 5612 5612 5613 5613 5612 5614 5613 5612 5612 5613 5613 5614 5616 5618 5621 5622 5623 5624 5625 5625 5626 5626 5626 5627 5627 5626 5625
5601 5602 5602 5603 5604 5604 5604 5605 5606 5607 5607 5607 5607 5607 5606 5606 5606 5607 5607 5608 5608 5607 5605 5606 5606 5606 5608 5609 5611 5613 5616 5620 5623 5624 5624 5625 5625 5625 5625 5626 5626 5625
5596 5597 5597 5598 5599 5599 5599 5600 5600 5601 5602 5602 5602 5602 5601 5602 5602 5602 5602 5602 5603 5603 5601 5600 5600 5601 5602 5603 5605 5606 5608 5612 5617 5621 5623 5624 5624 5624 5624 5624 5624 5625
5592 5592 5592 5593 5594 5594 5594 5594 5595 5595 5596 5597 5596 5596 5596 5597 5597 5597 5597 5598 5599 5599 5597 5596 5595 5596 5596 5597 5599 5600 5602 5605 5609 5614 5618 5621 5622 5622 5622 5622 5623 5624
5587 5587 5587 5587 5588 5588 5588 5588 5589 5590 5590 5591 5590 5590 5590 5591 5592 5592 5593 5593 5593 5594 5593 5592 5591 5591 5591 5592 5594 5595 5598 5599 5602 5606 5612 5617 5619 5620 5620 5621 5621 5622
5582 5581 5582 5582 5582 5582 5583 5583 5584 5584 5584 5584 5584 5584 5584 5585 5586 5587 5587 5586 5587 5588 5588 5588 5587 5587 5587 5588 5589 5591 5593 5596 5599 5602 5607 5612 5616 5618 5619 5620 5621 5621
5577 5577 5576 5576 5576 5577 5576 5577 5578 5578 5578 5578 5577 5578 5578 5579 5580 5580 5580 5581 5581 5582 5583 5584 5584 5584 5584 5585 5585 5587 5589 5593 5596 5600 5603 5607 5612 5616 5618 5619 5619 5620
5573 5572 5572 5571 5571 5571 5571 5571 5571 5571 5572 5571 5572 5572 5571 5572 5572 5573 5574 5575 5576 5577 5578 5579 5580 5580 5581 5582 5583 5584 5586 5589 5593 5596 5601 5605 5609 5614 5616 5616 5616 5618
5568 5567 5567 5566 5566 5566 5565 5565 5565 5565 5565 5565 5565 5566 5565 5566 5566 5567 5568 5569 5570 5571 5572 5574 5574 5575 5576 5577 5579 5581 5584 5587 5590 5592 5597 5602 5607 5612 5614 5615 5614 5615
5562 5562 5561 5561 5561 5560 5559 5558 5558 5559 5559 5559 5559 5559 5559 5560 5560 5561 5561 5562 5563 5564 5565 5567 5568 5568 5570 5572 5575 5578 5581 5584 5587 5590 5593 5598 5603 5609 5613 5614 5612 5612
5556 5556 5556 5555 5555 5554 5553 5553 5553 5553 5553 5553 5553 5553 5553 5554 5554 5554 5555 5555 5556 5557 5558 5559 5561 5561 5564 5568 5572 5575 5578 5582 5584 5587 5591 5594 5599 5604 5609 5611 5611 5612
5550 5550 5550 5549 5549 5548 5547 5547 5546 5546 5547 5547 5547 5547 5547 5547 5547 5547 5547 5548 5549 5549 5550 5552 5554 5556 5558 5563 5568 5572 5576 5580 5583 5586 5588 5591 5594 5598 5602 5606 5609 5612
5543 5543 5543 5542 5542 5542 5541 5540 5540 5540 5540 5540 5540 5540 5540 5540 5540 5540 5540 5540 5542 5542 5543 5545 5547 5549 5552 5557 5562 5566 5572 5576 5580 5583 5587 5589 5591 5593 5596 5599 5604 5609
5537 5537 5536 5536 5535 5535 5534 5534 5534 5533 5533 5533 5533 5533 5533 5533 5533 5533 5533 5533 5534 5534 5535 5538 5539 5541 5545 5549 5554 5560 5565 5570 5574 5578 5581 5582 5584 5585 5587 5589 5594 5600
5531 5530 5530 5529 5529 5528 5528 5527 5526 5526 5526 5526 5526 5526 5526 5526 5525 5525 5525 5525 5526 5526 5528 5530 5532 5534 5537 5541 5547 5552 5557 5562 5566 5570 5571 5573 5574 5576 5578 5580 5584 5588
5524 5523 5523 5522 5522 5522 5521 5520 5519 5518 5518 5518 5518 5518 5519 5518 5518 5518 5517 5517 5518 5518 5520 5521 5524 5526 5529 5533 5537 5542 5548 5553 5556 5560 5562 5564 5566 5568 5571 5573 5576 5579
5517 5516 5516 5515 5515 5514 5513 5512 5511 5510 5510 5510 5510 5511 5511 5510 5510 5510 5509 5510 5510 5510 5511 5512 5515 5517 5520 5523 5527 5532 5538 5543 5546 5549 5552 5555 5557 5560 5562 5566 5568 5571
5510 5510 5509 5508 5507 5506 5505 5504 5503 5502 5502 5502 5502 5502 5502 5502 5502 5502 5502 5502 5502 5502 5503 5503 5505 5508 5510 5513 5517 5521 5526 5530 5534 5538 5542 5544 5548 5551 5554 5557 5560 5563
5504 5503 5502 5501 5500 5498 5497 5496 5495 5494 5494 5494 5494 5494 5493 5494 5494 5493 5493 5493 5493 5493 5494 5494 5496 5498 5500 5503 5506 5510 5514 5518 5522 5527 5530 5533 5536 5540 5544 5547 5550 5555
5497 5496 5495 5494 5492 5491 5490 5488 5488 5486 5486 5486 5486 5485 5485 5485 5484 5484 5484 5483 5483 5484 5484 5485 5486 5488 5490 5492 5494 5497 5501 5505 5510 5514 5517 5519 5522 5527 5533 5536 5540 5545